#timestamp,LO_Frequency,Hit,StdDev 
1628571615.4,286047002.1,N
1628571635.2,286047002.2,N
1628571655.0,286047003.8,N
1628571655.9,286047003.8,N
1628571675.8,286047004.3,N
1628571695.6,286047001.9,N
1628571715.5,286047001.3,N
1628571735.3,286047001.5,N
1628571755.1,286047001.9,N
1628571775.9,286047001.7,N
1628571795.7,286047001.6,N
1628571815.5,286047002.4,N
1628571835.4,286047002.0,N
1628571855.2,286047002.1,N
1628571875.1,286047000.5,N
1628571876.0,286047000.5,N
1628571895.8,286047000.1,N
1628571915.6,286047002.4,N
1628571935.5,286047002.1,N
1628571955.3,286047001.6,N
1628571975.1,286047002.1,N
1628571995.9,286047002.5,N
1628572015.7,286047001.9,N
1628572035.6,286047002.8,N
1628572055.4,286047000.1,N
1628572075.2,286047001.5,N
1628572095.1,286047004.0,Y
1628572096.0,286047004.0,P
1628572115.8,286047002.7,N
1628572135.6,286047002.8,P
1628572155.5,286047001.0,N
1628572175.3,286046998.9,N
1628572195.1,286046997.3,N
1628572215.9,286046997.5,N
1628572235.7,286046997.0,N
1628572255.6,286046998.4,N
1628572275.4,286046998.1,N
1628572295.2,286046998.6,N
1628572315.1,286047001.2,N
1628572316.0,286047001.2,N
1628572335.8,286047000.5,N
1628572355.7,286047000.6,N
1628572375.5,286047000.0,N
1628572395.3,286047000.6,N
1628572415.2,286047001.0,N
1628572435.9,286047000.8,N
1628572455.7,286047001.1,N
1628572475.6,286047001.1,N
1628572495.4,286046999.1,N
1628572515.2,286046999.1,N
1628572535.1,286046999.6,N
1628572536.0,286046999.6,N
1628572555.8,286047001.2,N
1628572575.7,286047000.5,N
1628572595.5,286047000.6,N
1628572615.3,286047001.0,N
1628572635.2,286047000.4,N
1628572655.9,286047001.0,N
1628572675.7,286047000.5,N
1628572695.6,286046998.6,N
1628572715.4,286046999.5,N
1628572735.3,286046998.6,N
1628572755.1,286047001.1,N
1628572756.0,286047001.1,N
1628572775.8,286047000.4,N
1628572795.7,286047000.9,N
1628572815.5,286047000.9,N
1628572835.3,286047000.9,N
1628572855.2,286046998.6,N
1628572875.0,286047000.7,N
1628572875.9,286047000.7,N
1628572895.8,286047000.7,N
1628572915.6,286047000.9,N
1628572935.4,286047001.1,N
1628572955.3,286046996.9,Y
1628572975.1,286046994.9,P
1628572995.9,286046996.9,N
1628573015.7,286046997.5,N
1628573035.5,286046999.3,N
1628573055.4,286046999.3,N
1628573075.2,286046999.0,N
1628573095.0,286046998.7,N
1628573096.0,286046998.7,N
1628573115.8,286046998.6,N
1628573135.6,286046999.1,N
1628573155.5,286046997.7,N
1628573175.3,286046996.6,N
1628573195.1,286046996.7,N
1628573215.9,286046996.7,N
1628573235.7,286046995.1,Y
1628573255.6,286046999.2,P
1628573275.4,286046997.7,P
1628573295.2,286046996.7,P
1628573315.1,286046995.6,Y
1628573316.0,286046995.6,P
1628573335.8,286046997.2,N
1628573355.7,286046996.5,P
1628573375.5,286046998.3,N
1628573395.3,286046998.3,N
1628573415.2,286046999.5,N
1628573435.0,286046999.0,N
1628573435.9,286046999.0,N
1628573455.8,286046998.9,N
1628573475.6,286047000.2,N
1628573495.4,286047002.3,N
1628573515.3,286047002.3,N
1628573535.1,286047002.2,N
1628573555.8,286047002.6,N
1628573575.7,286047001.9,N
1628573595.5,286047001.3,N
1628573615.3,286047004.1,N
1628573635.2,286047001.4,N
1628573655.0,286047002.1,N
1628573655.9,286047002.1,N
1628573675.8,286047000.0,N
1628573695.6,286046999.7,N
1628573715.4,286047000.9,N
1628573735.3,286047000.6,N
1628573755.1,286047000.8,N
1628573775.9,286046999.5,N
1628573795.7,286046999.2,N
1628573815.5,286047001.2,N
1628573835.4,286047001.0,N
1628573855.2,286047002.0,N
1628573875.0,286047000.3,N
1628573876.0,286047000.3,N
1628573895.8,286046998.4,N
1628573915.6,286046999.5,N
1628573935.5,286046998.6,N
1628573955.3,286046998.4,N
1628573975.1,286047000.4,N
1628573995.9,286047000.5,N
1628574015.7,286046998.1,N
1628574035.6,286047001.1,N
1628574055.4,286046998.2,N
1628574075.2,286046998.9,N
1628574095.1,286046998.9,N
1628574096.0,286046998.9,N
1628574115.8,286047001.2,N
1628574135.6,286046998.1,N
1628574155.5,286046998.3,N
1628574175.3,286046999.2,N
1628574195.2,286046996.8,N
1628574215.9,286046998.0,N
1628574235.7,286046997.1,N
1628574255.6,286046997.4,N
1628574275.4,286046995.4,Y
1628574295.2,286046995.0,P
1628574315.1,286046995.3,N
1628574316.0,286046995.3,N
1628574335.8,286046997.2,N
1628574355.7,286046997.4,N
1628574375.5,286046997.5,N
1628574395.3,286046995.4,Y
1628574415.2,286047000.6,P
1628574435.0,286047002.5,N
1628574435.9,286047002.5,N
1628574455.7,286047002.2,N
1628574475.6,286047002.6,N
1628574495.4,286047001.8,N
1628574515.3,286047002.3,N
1628574535.1,286047002.1,N
1628574536.0,286047002.1,N
1628574555.8,286047000.1,N
1628574575.7,286047002.6,N
1628574595.5,286047002.8,N
1628574615.3,286047000.0,N
1628574635.2,286047002.2,N
1628574655.0,286046999.8,N
1628574655.9,286046999.8,N
1628574675.8,286047001.3,N
1628574695.6,286047004.4,N
1628574715.4,286047004.4,N
1628574735.3,286047002.8,N
1628574755.1,286046999.9,N
1628574775.8,286047000.6,N
1628574795.7,286047002.3,N
1628574845.6,286047004.3,E
1628574855.5,286047002.3,N
1628574875.3,286047000.6,P
1628574895.1,286046999.9,N
1628574915.9,286047000.2,N
1628574935.7,286047002.2,N
1628574955.6,286047002.1,N
1628574975.4,286047000.1,N
1628574995.2,286047000.4,N
1628575015.1,286047000.3,N
1628575016.0,286047000.3,N
1628575035.8,286047000.3,N
1628575055.6,286047002.6,N
1628575075.5,286047001.9,N
1628575095.3,286047002.5,N
1628575115.2,286047002.7,N
1628575135.9,286046999.7,N
1628575155.7,286047002.0,N
1628575175.6,286047002.8,N
1628575195.4,286046999.9,N
